Date,TemperatureHighF,TemperatureAvgF,TemperatureLowF,DewpointHighF,DewpointAvgF,DewpointLowF,HumidityHigh,HumidityAvg,HumidityLow,PressureMaxIn,PressureMinIn,WindSpeedMaxMPH,WindSpeedAvgMPH,GustSpeedMaxMPH,PrecipitationSumIn
2013-1-1,22.0,7.1,-1.4,8.9,0.3,-6.9,83,74,53,30.21,30.09,7,2,7,0.00
2013-1-2,32.0,18.7,9.7,16.6,10.9,4.1,81,72,45,30.11,30.00,8,1,8,0.00
2013-1-3,26.5,20.8,10.8,20.4,16.0,5.8,86,82,77,30.19,30.01,10,3,10,0.00
2013-1-4,37.3,20.4,9.7,21.4,13.9,5.0,85,76,52,30.15,30.04,10,2,10,0.00
2013-1-5,34.6,24.2,6.8,31.2,20.1,3.2,91,84,72,30.18,29.83,8,2,8,0.01
2013-1-6,34.2,22.9,11.0,29.8,17.8,7.2,90,80,69,30.25,29.83,14,3,14,0.00
2013-1-7,38.0,24.6,9.4,25.8,18.3,5.9,89,77,60,30.23,29.99,15,3,15,0.01
2013-1-8,44.3,30.7,14.6,32.1,24.8,11.7,92,79,60,30.06,29.90,11,2,11,0.06
2013-1-9,43.6,32.9,18.4,30.7,24.8,14.0,87,73,53,30.43,29.89,13,3,13,0.01
2013-1-10,43.4,28.9,14.8,32.8,24.1,11.4,92,83,63,30.45,29.83,6,1,6,0.31
2013-1-11,44.8,39.2,34.0,42.9,37.4,31.9,95,93,92,29.83,29.57,9,2,9,0.03
2013-1-12,46.4,33.5,21.6,42.7,27.1,16.2,92,77,65,29.98,29.58,12,4,12,0.00
2013-1-13,24.5,17.2,12.1,16.5,9.8,4.3,81,73,59,30.16,29.87,12,4,12,0.00
2013-1-14,31.9,14.7,5.9,13.9,6.3,0.8,83,70,43,30.39,30.16,8,1,8,0.00
2013-1-15,36.9,18.3,5.9,18.4,10.0,1.4,85,71,42,30.37,30.02,9,1,9,0.00
2013-1-16,33.1,26.1,15.8,27.6,19.0,8.6,83,74,62,30.02,29.73,16,3,16,0.00
2013-1-17,29.9,20.4,13.0,20.4,8.9,4.9,78,62,41,30.35,30.02,12,3,12,0.00
2013-1-18,44.3,30.2,14.0,32.0,22.4,7.8,80,73,58,30.36,29.78,15,4,15,0.00
2013-1-19,51.3,36.7,15.8,35.2,27.2,4.6,82,69,42,29.94,29.63,26,4,26,0.00
2013-1-20,18.9,11.2,6.5,7.8,-0.1,-1.9,76,60,47,30.27,29.94,21,5,21,0.00
2013-1-21,10.8,3.6,-2.5,0.9,-6.4,-11.1,78,63,51,30.22,30.07,17,6,17,0.00
2013-1-22,11.9,1.5,-7.4,-3.2,-7.8,-13.3,76,65,49,30.30,30.22,11,3,11,0.00
2013-1-23,20.2,12.0,4.0,13.0,3.7,-5.3,84,69,58,30.37,30.02,21,4,21,0.00
2013-1-24,16.2,5.6,-0.7,4.2,-3.5,-7.6,74,66,56,30.59,30.37,14,4,14,0.00
2013-1-27,32.9,27.7,21.4,30.9,21.9,12.0,92,79,66,30.28,29.80,10,4,10,0.01
2013-1-28,45.7,36.0,32.6,37.7,32.2,28.8,93,87,72,29.91,29.74,7,1,7,0.29
2013-1-29,54.4,42.0,34.2,52.0,40.0,32.3,95,93,91,29.75,29.45,10,3,10,1.57
2013-1-30,34.6,26.7,14.8,32.8,24.1,10.3,94,90,82,29.58,29.30,17,6,17,0.08
2013-1-31,14.8,9.6,0.7,10.3,3.9,-5.2,83,77,67,30.10,29.58,16,5,16,0.00